Muncie, IN

1:40 AM EDT on September 28, 2016 (GMT -0400)
Delaware County-Johnson

Weather History for KMIE - July, 2014

Change the Weather History Date:

Friday, July 11, 2014

  Actual Average Record
Temperature  
Mean Temperature 68 °F 75 °F  
Max Temperature 81 °F 85 °F 100 °F (1988)
Min Temperature 55 °F 65 °F 51 °F (1996)
Degree Days  
Heating Degree Days 0 0  
Month to date heating degree days 1 0  
Since 1 June heating degree days 9 24  
Since 1 July heating degree days 1 0  
Cooling Degree Days 3 10  
Month to date cooling degree days 64 110  
Year to date cooling degree days 424 409  
Since 1 June cooling degree days 309 326  
Growing Degree Days 18 (Base 50)    
Moisture  
Dew Point 54 °F    
Average Humidity 66    
Maximum Humidity 93    
Minimum Humidity 39    
Precipitation  
Precipitation 0.00 in 0.14 in 1.72 in (1986)
Month to date precipitation 1.50 1.56  
Year to date precipitation 21.73 21.79  
Sea Level Pressure  
Sea Level Pressure 30.18 in    
Wind  
Wind Speed 3 mph (SW)    
Max Wind Speed 10 mph    
Max Gust Speed 15 mph    
Visibility 10 miles    
Events      
T = Trace of Precipitation, MM = Missing Value Source: NWS Daily Summary

Daily Weather History Graph

Daily Weather History Graph

Search for Another Location

Airport or City:

Trip Planner

Search our weather history database for the weather conditions in past years. The results will help you decide how hot, cold, wet, or windy it might be!

Date:

Astronomy

Jul. 11, 2014 Rise Set
Actual Time 6:21 AM EDT 9:12 PM EDT
Civil Twilight 5:49 AM EDT 9:44 PM EDT
Nautical Twilight 5:08 AM EDT 10:24 PM EDT
Astronomical Twilight 4:21 AM EDT 11:11 PM EDT
Moon 8:21 PM EDT (7/11) 5:33 AM EDT (7/11)
Length of Visible Light 15h 54m
Length of Day
14h 50m
Waxing Gibbous, 99% of the Moon is Illuminated
Jul 11
Waxing Gibbous
Jul 12
Full
Jul 18
Last Quarter
Jul 26
New
Aug 3
First Quarter

Hourly Weather History & Observations

Time (EDT) Temp. Heat Index Dew Point Humidity Pressure Visibility Wind Dir Wind Speed Gust Speed Precip Events Conditions
12:53 AM 60.1 °F - 55.0 °F 83% 30.17 in 10.0 mi Calm Calm - N/A   Clear
1:53 AM 60.1 °F - 54.0 °F 80% 30.18 in 10.0 mi Calm Calm - N/A   Clear
2:53 AM 57.9 °F - 53.1 °F 84% 30.17 in 10.0 mi Calm Calm - N/A   Clear
3:53 AM 57.9 °F - 54.0 °F 87% 30.17 in 10.0 mi Calm Calm - N/A   Clear
4:53 AM 55.9 °F - 52.0 °F 87% 30.17 in 10.0 mi Calm Calm - N/A   Clear
5:53 AM 55.9 °F - 53.1 °F 90% 30.18 in 10.0 mi North 3.5 mph - N/A   Clear
6:53 AM 55.9 °F - 53.1 °F 90% 30.19 in 10.0 mi Calm Calm - N/A   Clear
7:53 AM 62.1 °F - 57.0 °F 84% 30.20 in 10.0 mi Calm Calm - N/A   Clear
8:53 AM 66.9 °F - 57.0 °F 70% 30.22 in 10.0 mi East 3.5 mph - N/A   Clear
9:53 AM 72.0 °F - 55.0 °F 55% 30.21 in 10.0 mi SE 3.5 mph - N/A   Clear
10:53 AM 77.0 °F - 52.0 °F 42% 30.21 in 10.0 mi Calm Calm - N/A   Clear
11:53 AM 77.0 °F - 52.0 °F 42% 30.22 in 10.0 mi SW 3.5 mph - N/A   Clear
12:53 PM 79.0 °F - 51.1 °F 38% 30.21 in 10.0 mi Variable 4.6 mph - N/A   Clear
1:53 PM 80.1 °F 80.0 °F 54.0 °F 40% 30.20 in 10.0 mi NW 5.8 mph - N/A   Clear
2:53 PM 78.1 °F - 52.0 °F 40% 30.19 in 10.0 mi Variable 3.5 mph - N/A   Clear
3:53 PM 81.0 °F 80.4 °F 53.1 °F 38% 30.17 in 10.0 mi North - - N/A   Clear
4:53 PM 81.0 °F 80.4 °F 53.1 °F 38% 30.15 in 10.0 mi North - - N/A   Clear
5:53 PM 81.0 °F 80.7 °F 55.0 °F 41% 30.14 in 10.0 mi WSW 9.2 mph - N/A   Partly Cloudy
6:53 PM 79.0 °F - 55.0 °F 44% 30.13 in 10.0 mi SW 6.9 mph - N/A   Clear
7:53 PM 79.0 °F - 55.0 °F 44% 30.14 in 10.0 mi WSW 6.9 mph - N/A   Clear
8:53 PM 75.9 °F - 55.9 °F 50% 30.14 in 10.0 mi SSW 3.5 mph - N/A   Clear
9:53 PM 75.0 °F - 55.9 °F 51% 30.14 in 10.0 mi Calm Calm - N/A   Clear
10:53 PM 69.1 °F - 59.0 °F 70% 30.16 in 10.0 mi Calm Calm - N/A   Clear
11:53 PM 69.1 °F - 61.0 °F 75% 30.15 in 10.0 mi SSE 3.5 mph - N/A   Clear